Back to catalog

NORSAT 3

AliveScienceSSO
NORAD 48272·PAYLOAD·🇳🇴 Norway

Launched Apr 29, 2021 from Guiana Space Centre

Loading…

Next Passes (next 24 hours)

TLE

FreshSource: Space-Track

Epoch: Sep 14, 2026, 14:20 UTC

1 48272U 21034E   26257.59789250  .00002962  00000-0  20777-3 0  9995
2 48272  97.5221 312.7192 0007394  11.4402 348.6992 15.05918861293291

Track NORSAT 3 in real time with AllMySat

Download on the App Store